Regional Weather Roundup
Issued by NWS

Home | Current Version | Previous Version | Graphics & Text | Print | Product List | Glossary On
Versions: 1 2 3 4 5 6 7 8 9 10 11 12 13 14 15 16 17 18 19 20 21 22 23 24 25 26 27 28 29 30 31 32 33 34 35 36 37 38 39 40 41 42 43 44 45 46 47 48 49 50
000
ASUS43 KDTX 011910
RWRMI
MICHIGAN HOURLY REGIONAL WEATHER ROUNDUP
NATIONAL WEATHER SERVICE DETROIT/PONTIAC MI
300 PM EDT SAT AUG 01 2015

NOTE: "FAIR" INDICATES FEW OR NO CLOUDS BELOW 12,000 FEET WITH NO
SIGNIFICANT WEATHER AND/OR OBSTRUCTION TO VISIBILITY.

MIZ047>049-052>055-059>063-066>070-074>076-081>083-012000-
SOUTHEAST LOWER MICHIGAN

CITY           SKY/WX    TMP DP  RH WIND       PRES   REMARKS
ADRIAN         MOSUNNY   81  52  36 W12G23    29.93F
ALMA           MOSUNNY   82  46  28 W15G23    29.89S
ANN ARBOR      MOSUNNY   83  53  35 W16G25    29.91F
BAD AXE        MOSUNNY   76  56  48 W9        29.87S
DETROIT CITY   MOSUNNY   81  50  33 W14G21    29.89F
DETROIT        MOSUNNY   83  51  33 W14       29.90F
FLINT          MOSUNNY   84  51  31 W18G25    29.88F
GROSSE ILE     MOSUNNY   84  46  26 W16       29.89F
HILLSDALE      MOSUNNY   79  51  37 NW10G18   29.96S
HOWELL         MOSUNNY   83  47  28 W13G22    29.91F

CITY           SKY/WX    TMP DP  RH WIND       PRES   REMARKS
JACKSON        MOSUNNY   80  54  40 W14       29.93F
LAMBERTVILLE   MOSUNNY   80  56  42 W8        29.93F
LANSING        MOSUNNY   82  49  31 W14G25    29.91F
LAPEER         NOT AVBL
MASON          MOSUNNY   79  50  36 W14G23    29.92F
MONROE         MOSUNNY   81  56  41 W12       29.90F
MT. CLEMENS    MOSUNNY   82  52  35 W16G22    29.86F
PONTIAC        MOSUNNY   81  51  35 NW15      29.90F
PORT HOPE        N/A     78  57  48 W6G17     29.84F
PORT HURON     MOSUNNY   81  55  41 W8        29.87F
TRI CITIES     MOSUNNY   83  51  33 W17       29.86F
YPSILANTI      MOSUNNY   87  52  29 W13       29.91F
$$
MIZ043>046-050>051-056>058-064>065-071>073-077>080-012000-
SOUTHWEST LOWER MICHIGAN

CITY           SKY/WX    TMP DP  RH WIND       PRES   REMARKS
BATTLE CREEK   MOSUNNY   83  52  34 NW16G25   29.95F
BENTON HARBOR  CLOUDY    77  61  57 W9        29.97S
BIG RAPIDS     MOSUNNY   79  43  28 W10G23    29.89F
COLDWATER      PTSUNNY   79  48  33 W15       29.95F
HOLLAND        MOSUNNY   79  59  50 W9        29.95F
GRAND RAPIDS   MOSUNNY   82  48  30 W21G28    29.92F
KALAMAZOO      SUNNY     83  50  31 W14       29.95F
MARSHALL       MOSUNNY   82  53  35 W16G22    29.94S
MUSKEGON       MOSUNNY   79  57  46 W14       29.93F
$$
MIZ016>042-012000-
NORTHERN LOWER MICHIGAN

CITY           SKY/WX    TMP DP  RH WIND       PRES   REMARKS
ALPENA         MOSUNNY   80  52  37 SW7       29.83S
BEAVER ISLAND  MOSUNNY   74  57  54 SW14      29.86F
BELLAIRE       MOSUNNY   77  53  43 W8G18     29.87S
CADILLAC       MOSUNNY   81  49  32 W8G22     29.89S
CHARLEVOIX     SUNNY     73  59  61 W14       29.90S
FRANKFORT      CLEAR     76  58  52 W8        29.90S
GAYLORD        MOSUNNY   78  50  37 W18G24    29.87S
GRAYLING       MOSUNNY   80  51  36 NW14G21   29.87S
HARBOR SPRINGS SUNNY     73  61  68 SW9G17    29.86S
HOUGHTON LAKE  PTSUNNY   78  53  41 W12       29.88F
MANISTEE       SUNNY     75  54  46 W12       29.92R
OSCODA         CLOUDY    75  55  49 E9        29.83S
PELLSTON       SUNNY     77  55  46 W15G25    29.84F
TRAVERSE CITY  PTSUNNY   82  50  32 W15G23    29.85F
$$
MIZ007>008-015-012000-
EASTERN UPPER MICHIGAN

CITY           SKY/WX    TMP DP  RH WIND       PRES   REMARKS
KINROSS        MOSUNNY   72  59  64 N10       29.81F
MACKINAC ISLAN   N/A     72  60  67 SW16G22   29.83S
NEWBERRY       PTSUNNY   78  51  38 W9G22     29.82F
S. S. MARIE    MOSUNNY   74  56  53 NW14      29.81S
$$
MIZ004>006-011>014-085-012000-
CENTRAL UPPER MICHIGAN

CITY           SKY/WX    TMP DP  RH WIND       PRES   REMARKS
MANISTIQUE     MOSUNNY   73  61  64 S13G20    29.83F
ESCANABA       PTSUNNY   77  52  41 NW10G16   29.83S
MENOMINEE      MOSUNNY   79  52  38 NW10G16   29.86F
SAWYER-GWINN   PTSUNNY   77  46  33 W16G23    29.85F
$$
MIZ001>003-009>011-084-012000-
WESTERN UPPER MICHIGAN

CITY           SKY/WX    TMP DP  RH WIND       PRES   REMARKS
IRON MOUNTAIN  MOSUNNY   78  51  38 NW14      29.87F
HOUGHTON       SUNNY     74  53  48 W15G22    29.84S
COPPER HARBOR    N/A     70  60  70 N16       29.80F
IRONWOOD       SUNNY     73  54  49 NW14        N/A
$$

ABBREVIATIONS USED IN REMARKS
   TC - TEMPERATURE IN CELSIUS
  WCI - WIND CHILL INDEX
   HX - HEAT INDEX
  VSB - VISIBILITY




USA.gov is the U.S. government's official web portal to all federal, state and local government web resources and services.